PBO Station Position Time Series. Reference Frame : NAM14
Format Version,1.1.1
4-character ID,COVG
Station name,Covington
Begin Date, 2004-07-17
End Date, 2023-06-26
Release Date, 2023-06-27
Reference position, 30.4759137139 North Latitude, -90.0955416336 East Longitude, -5.93634 meters elevation,
Date, North (mm), East (mm), Vertical (mm), North Std. Deviation (mm), East Std. Deviation (mm),              Vertical Std. Deviation (mm), Quality,
2004-07-17,0.00, 0.00, 0.00, 1.93, 1.86, 8.24, repro,
2004-07-18,0.63, 0.71, -18.05, 2.02, 1.97, 8.85, repro,
2004-07-19,1.97, -1.66, -31.28, 1.87, 1.77, 8.09, repro,
2004-07-20,1.40, -1.58, -19.94, 1.83, 1.73, 7.82, repro,
2004-07-21,0.33, -1.56, -23.24, 1.81, 1.72, 7.69, repro,
2004-07-22,-1.09, -3.84, -17.94, 1.91, 1.88, 8.22, repro,
2004-07-23,1.55, -2.50, -25.67, 1.91, 1.86, 8.18, repro,
2004-07-24,1.53, -2.54, -25.87, 1.94, 1.80, 8.12, repro,
2004-07-25,0.54, -2.93, -19.81, 2.01, 1.73, 8.07, repro,
2004-07-26,-0.63, -3.29, -32.84, 1.94, 1.87, 8.36, repro,
2004-07-27,1.80, -2.34, -32.44, 1.87, 1.75, 7.89, repro,
2004-07-28,1.48, -1.57, -25.63, 1.81, 1.71, 7.73, repro,
2004-07-29,-0.09, -1.77, -16.73, 1.82, 1.71, 7.73, repro,
2004-07-30,-1.45, -0.82, -16.35, 1.84, 1.77, 8.05, repro,
2004-07-31,-1.52, -0.02, -11.53, 1.97, 1.95, 8.58, repro,
2004-08-01,-3.58, 0.96, -29.14, 1.93, 1.84, 8.42, repro,
2004-08-02,2.67, -3.14, -26.68, 1.97, 1.93, 8.36, repro,
2004-08-03,0.65, -3.69, -18.51, 1.85, 1.74, 7.81, repro,
2004-08-04,-1.42, -4.89, -9.85, 1.90, 1.82, 8.05, repro,
2004-08-05,1.24, -3.24, -17.31, 1.84, 1.72, 7.96, repro,
2004-08-06,1.57, -1.48, -19.17, 2.25, 2.11, 9.72, repro,
2004-08-07,0.94, -1.56, -12.02, 2.28, 2.18, 10.22, repro,
2004-08-08,-0.79, -0.85, -16.93, 1.83, 1.71, 7.76, repro,
2004-08-09,2.24, -5.19, -16.25, 1.95, 1.79, 8.19, repro,
2004-08-10,0.98, -0.69, -8.45, 2.02, 1.89, 8.80, repro,
2004-08-11,-0.37, -1.47, -20.80, 1.93, 1.82, 8.21, repro,
2004-08-12,1.25, -0.78, -26.84, 1.84, 1.72, 7.88, repro,
2004-08-13,-0.81, -1.02, -17.29, 1.90, 1.79, 7.94, repro,
2004-08-14,0.17, 0.09, -18.48, 1.89, 1.71, 8.05, repro,
2004-08-15,1.73, -0.85, -21.50, 1.87, 1.70, 7.95, repro,
2004-08-16,0.05, -0.51, -22.88, 1.87, 1.83, 8.02, repro,
2004-08-17,0.79, -1.27, -15.81, 1.85, 1.70, 7.90, repro,
2004-08-18,-0.93, -2.46, -15.79, 1.81, 1.69, 7.68, repro,
2004-08-19,-1.25, -2.72, -11.58, 1.89, 1.74, 7.92, repro,
2004-08-20,-0.53, -4.00, -21.83, 2.57, 2.42, 11.35, repro,
2004-08-21,3.13, -2.24, -14.29, 2.07, 1.96, 8.97, repro,
2004-08-22,1.35, 0.29, -12.38, 1.81, 1.70, 7.69, repro,
2004-08-23,-1.87, -0.37, -19.88, 1.82, 1.70, 7.73, repro,
2004-08-24,-0.11, -1.48, -6.09, 1.94, 1.74, 8.38, repro,
2004-08-25,-1.56, -1.69, -15.82, 1.91, 1.72, 8.18, repro,
2004-08-26,-1.06, -4.61, -0.06, 2.17, 2.11, 9.42, repro,
2004-08-27,-0.33, -1.50, -17.25, 2.00, 1.85, 8.39, repro,
2004-08-28,0.73, -3.47, -17.82, 1.90, 1.74, 8.14, repro,
2004-08-29,0.60, -3.60, -12.29, 2.22, 1.94, 9.42, repro,
2004-08-30,0.20, -3.51, -23.88, 2.13, 1.93, 9.20, repro,
2004-08-31,-1.70, 0.48, -21.94, 2.33, 2.03, 9.76, repro,
2004-09-01,2.73, -0.84, -22.09, 1.93, 1.80, 8.27, repro,
2004-09-02,0.10, -1.03, -10.99, 1.98, 1.83, 8.54, repro,
2004-09-03,1.18, -2.77, -13.92, 2.20, 1.97, 9.15, repro,
2004-09-04,-0.39, -2.78, -16.45, 2.18, 1.96, 9.48, repro,
2004-09-05,-0.83, -2.06, -14.81, 1.87, 1.70, 8.03, repro,
2004-09-06,0.30, -2.39, -16.31, 1.81, 1.69, 7.74, repro,
2004-09-07,-0.10, -2.17, -12.09, 1.82, 1.69, 7.78, repro,
2004-09-08,0.07, -2.38, -18.87, 1.92, 1.73, 8.19, repro,
2004-09-09,2.24, -2.29, -7.28, 1.94, 1.78, 8.37, repro,
2004-09-10,-0.30, -1.95, -25.10, 1.92, 1.73, 8.23, repro,
2004-09-11,-1.74, -1.70, -27.23, 1.85, 1.72, 7.95, repro,
2004-09-12,-1.07, -2.71, -19.86, 1.89, 1.76, 8.09, repro,
2004-09-13,-1.97, -2.08, -20.14, 2.09, 1.86, 8.97, repro,
2004-09-14,-0.70, 0.75, -18.16, 1.92, 1.70, 8.04, repro,
2004-09-15,-1.58, 0.41, -22.81, 1.92, 1.75, 8.31, repro,
2004-09-21,-0.90, -1.12, -28.41, 1.83, 1.73, 7.88, repro,
2004-09-22,-0.21, 0.90, -20.59, 1.92, 1.75, 8.27, repro,
2004-09-23,1.59, 0.02, -20.36, 1.88, 1.71, 8.09, repro,
2004-09-24,-0.46, -1.36, -27.56, 1.86, 1.68, 8.03, repro,
2004-09-25,-0.27, 0.17, -18.84, 1.90, 1.76, 8.29, repro,
2004-09-26,0.28, 0.04, -23.88, 1.80, 1.68, 7.78, repro,
2004-09-27,0.47, 0.14, -16.77, 1.89, 1.74, 8.20, repro,
2004-09-28,0.75, 0.19, -16.84, 1.79, 1.67, 7.73, repro,
2004-09-29,1.59, -0.16, -19.65, 1.80, 1.66, 7.69, repro,
2004-09-30,0.54, -1.17, -22.38, 1.81, 1.68, 7.75, repro,
2004-10-01,0.46, -0.43, -29.38, 1.80, 1.68, 7.79, repro,
2004-10-02,-0.40, 0.05, -15.22, 1.79, 1.68, 7.76, repro,
2004-10-03,0.28, 0.09, -23.46, 2.12, 1.88, 8.73, repro,
2004-10-04,0.19, -1.83, -23.46, 2.09, 1.85, 8.92, repro,
2004-10-05,0.92, 0.74, -19.41, 1.86, 1.80, 8.11, repro,
2004-10-06,0.22, 1.86, -26.34, 1.80, 1.68, 7.82, repro,
2004-10-07,-3.07, -0.02, -24.07, 2.38, 2.18, 10.18, repro,
2004-10-08,0.59, 0.48, -21.78, 1.87, 1.71, 8.16, repro,
2004-10-09,-2.00, 1.37, -26.52, 1.92, 1.72, 8.37, repro,
2004-10-10,2.25, 3.14, -34.56, 1.92, 1.81, 8.32, repro,
2004-10-11,-0.33, 2.04, -21.45, 1.91, 1.82, 8.40, repro,
2004-10-12,-0.13, 0.47, -23.70, 1.84, 1.71, 7.89, repro,
2004-10-13,-0.52, 0.49, -21.30, 1.83, 1.70, 7.83, repro,
2004-10-14,-0.16, 0.78, -18.15, 1.81, 1.68, 7.87, repro,
2004-10-15,-0.15, 1.27, -14.22, 1.89, 1.76, 8.22, repro,
2004-10-16,0.67, 2.18, -18.91, 1.80, 1.68, 7.81, repro,
2004-10-17,0.46, 0.26, -19.15, 1.98, 1.87, 8.79, repro,
2004-10-18,0.57, -0.02, -16.43, 2.01, 1.92, 9.02, repro,
2004-10-19,0.24, 0.81, -16.90, 1.88, 1.75, 8.34, repro,
2004-10-20,0.99, -0.60, -9.51, 1.90, 1.80, 8.43, repro,
2004-10-21,-0.23, -2.45, -14.04, 1.89, 1.79, 8.09, repro,
2004-10-22,-0.88, -1.05, -16.20, 2.12, 1.90, 9.16, repro,
2004-10-23,-0.94, -0.59, -12.17, 1.89, 1.79, 8.10, repro,
2004-10-24,0.02, -0.54, -13.73, 1.88, 1.78, 8.15, repro,
2004-10-25,2.23, 0.11, -18.45, 1.88, 1.75, 8.05, repro,
2004-10-26,0.12, -0.37, -22.62, 1.90, 1.78, 8.14, repro,
2004-10-27,-0.48, -1.61, -24.03, 1.87, 1.74, 8.01, repro,
2004-10-28,0.30, -1.54, -19.98, 1.89, 1.78, 8.12, repro,
2004-10-29,0.53, -0.34, -29.13, 1.87, 1.72, 8.03, repro,
2004-10-30,-0.25, -0.38, -15.27, 1.89, 1.74, 8.08, repro,
2004-10-31,-1.59, -0.23, -20.16, 2.06, 1.90, 8.82, repro,
2004-11-01,0.43, 0.35, -20.68, 2.20, 2.03, 9.39, repro,
2004-11-02,2.03, -0.70, -23.18, 2.50, 2.12, 10.18, repro,
2004-11-03,-0.06, 1.84, -29.52, 2.04, 1.94, 9.07, repro,
2004-11-04,0.13, -0.32, -22.42, 1.85, 1.69, 7.93, repro,
2004-11-05,1.43, 1.77, -27.68, 1.94, 1.76, 8.35, repro,
2004-11-06,0.96, 1.70, -27.98, 1.92, 1.74, 8.22, repro,
2004-11-07,-0.30, 1.67, -24.24, 1.93, 1.75, 8.27, repro,
2004-11-08,-0.94, 1.22, -23.54, 2.02, 1.87, 8.64, repro,
2004-11-09,1.38, 1.95, -23.34, 1.85, 1.71, 7.99, repro,
2004-11-10,1.05, 1.97, -33.89, 1.89, 1.80, 8.23, repro,
2004-11-11,-1.93, 2.84, -25.95, 1.95, 1.82, 8.44, repro,
2004-11-12,0.93, 2.37, -24.42, 2.09, 1.86, 9.14, repro,
2004-11-13,2.14, 2.76, -32.20, 1.84, 1.69, 7.93, repro,
2004-11-14,2.42, 2.22, -32.64, 1.85, 1.71, 7.99, repro,
2004-11-15,0.42, 2.10, -38.48, 1.82, 1.70, 7.93, repro,
2004-11-16,0.42, 0.94, -28.73, 1.89, 1.73, 8.07, repro,
2004-11-17,1.06, 0.17, -31.45, 1.82, 1.67, 7.93, repro,
2004-11-18,1.88, 1.43, -35.49, 1.90, 1.80, 8.35, repro,
2004-11-19,-0.04, 0.72, -28.32, 1.91, 1.73, 8.09, repro,
2004-11-20,0.25, 1.48, -26.78, 1.94, 1.83, 8.46, repro,
2004-11-21,-0.18, 0.74, -24.69, 1.86, 1.73, 8.01, repro,
2004-11-22,1.58, 0.98, -26.91, 1.90, 1.79, 8.22, repro,
2004-11-23,2.37, 1.98, -20.84, 1.82, 1.71, 8.02, repro,
2004-11-24,0.44, -1.04, -26.97, 2.05, 1.96, 8.91, repro,
2004-11-25,2.37, 2.20, -21.78, 1.95, 1.81, 8.44, repro,
2004-11-26,2.56, 3.68, -26.08, 1.97, 1.80, 8.37, repro,
2004-11-27,0.29, 4.61, -16.04, 1.98, 1.79, 8.30, repro,
2004-11-28,2.88, 3.16, -25.53, 1.85, 1.71, 7.93, repro,
2004-11-29,3.33, 3.05, -28.62, 1.87, 1.69, 8.06, repro,
2004-11-30,0.39, 3.12, -23.13, 1.82, 1.73, 7.94, repro,
2004-12-01,2.28, 3.13, -27.50, 2.07, 1.93, 8.87, repro,
2004-12-02,3.30, 3.27, -35.30, 1.82, 1.72, 7.91, repro,
2004-12-03,2.96, 3.40, -26.93, 1.86, 1.80, 8.29, repro,
2004-12-04,2.49, 2.25, -30.35, 1.81, 1.69, 7.78, repro,
2004-12-05,2.11, 3.62, -26.51, 1.80, 1.64, 7.70, repro,
2004-12-06,1.83, 2.25, -27.84, 1.91, 1.75, 8.09, repro,
2004-12-07,1.33, 2.17, -24.73, 1.96, 1.92, 8.50, repro,
2004-12-08,2.58, 1.65, -33.59, 1.82, 1.69, 7.86, repro,
2004-12-09,1.25, 2.12, -18.74, 1.81, 1.69, 7.90, repro,
2004-12-10,3.68, -0.27, -24.39, 1.97, 1.76, 8.42, repro,
2004-12-11,3.83, 1.62, -20.65, 1.96, 1.86, 8.43, repro,
2004-12-12,4.21, 1.46, -22.89, 2.01, 1.93, 8.53, repro,
2004-12-13,1.97, 0.96, -27.98, 1.94, 1.84, 8.30, repro,
2004-12-14,3.93, 2.70, -35.07, 1.98, 2.01, 9.03, repro,
2004-12-15,5.47, 3.02, -36.40, 1.91, 1.84, 8.36, repro,
2004-12-16,4.31, 2.81, -45.27, 1.81, 1.70, 7.81, repro,
2004-12-17,4.45, 2.70, -34.75, 1.83, 1.67, 7.87, repro,
2004-12-18,2.95, 2.53, -31.27, 1.85, 1.67, 8.05, repro,
2004-12-19,4.18, 2.00, -32.54, 1.83, 1.67, 7.97, repro,
2004-12-20,5.29, 4.27, -19.74, 1.92, 1.78, 8.13, repro,
2004-12-21,4.40, 2.37, -30.51, 1.86, 1.71, 7.99, repro,
2004-12-22,4.47, 2.10, -29.61, 1.89, 1.75, 7.98, repro,
2004-12-23,3.12, 2.70, -36.70, 1.87, 1.69, 7.93, repro,
2004-12-24,5.17, 3.94, -28.84, 1.91, 1.71, 8.03, repro,
2004-12-25,5.43, 4.43, -31.27, 1.84, 1.69, 7.91, repro,
2004-12-26,5.58, 4.64, -33.76, 1.95, 1.85, 8.28, repro,
2004-12-27,5.75, 2.59, -44.82, 1.87, 1.74, 8.07, repro,
2004-12-28,4.89, 3.54, -40.07, 2.04, 1.94, 8.63, repro,
2004-12-29,2.84, 2.58, -31.93, 1.90, 1.81, 8.17, repro,
2004-12-30,3.59, 1.42, -30.97, 2.05, 1.87, 8.69, repro,
2004-12-31,3.26, 2.66, -39.69, 3.14, 3.04, 13.53, repro,
2005-01-01,2.14, 1.61, -33.16, 1.94, 1.90, 8.38, repro,
2005-01-02,2.06, -0.59, -31.38, 1.93, 1.87, 8.57, repro,
2005-01-03,0.57, 1.25, -29.26, 1.92, 1.82, 8.39, repro,
2005-01-04,2.28, -1.18, -31.21, 1.95, 1.87, 8.66, repro,
2005-01-05,1.87, 0.99, -26.38, 1.89, 1.84, 8.30, repro,
2005-01-06,4.16, 1.13, -25.94, 1.98, 1.88, 8.75, repro,
2005-01-07,2.38, 0.80, -28.66, 1.96, 1.85, 8.50, repro,
2005-01-08,3.73, 2.01, -31.36, 2.07, 1.91, 9.01, repro,
2005-01-09,3.78, 1.84, -33.18, 1.88, 1.78, 8.17, repro,
2005-01-10,3.44, 0.91, -29.82, 1.93, 1.84, 8.52, repro,
2005-01-11,1.43, -0.55, -27.06, 1.89, 1.80, 8.22, repro,
2005-01-12,2.12, -0.13, -28.04, 1.84, 1.75, 8.11, repro,
2005-01-13,3.24, -0.42, -19.47, 2.01, 1.82, 8.72, repro,
2005-01-14,4.14, 1.97, -34.28, 1.93, 1.83, 8.43, repro,
2005-01-15,4.39, 3.06, -36.86, 1.84, 1.75, 8.06, repro,
2005-01-16,4.25, 1.04, -40.39, 1.87, 1.79, 8.33, repro,
2005-01-17,5.22, 2.25, -38.05, 1.84, 1.76, 8.12, repro,
2005-01-18,6.15, 2.39, -41.11, 1.85, 1.74, 8.20, repro,
2005-01-19,6.09, 3.32, -34.24, 1.95, 1.91, 8.69, repro,
2005-01-20,3.60, 1.95, -32.12, 1.91, 1.80, 8.26, repro,
2005-01-21,2.87, 1.73, -28.51, 1.85, 1.76, 8.13, repro,
2005-01-22,3.60, 1.34, -27.88, 2.08, 1.99, 9.13, repro,
2005-01-23,4.89, 0.95, -36.65, 1.85, 1.75, 8.20, repro,
2005-01-24,5.31, 2.42, -31.36, 1.88, 1.80, 8.21, repro,
2005-01-25,4.36, 3.34, -26.39, 1.85, 1.78, 8.17, repro,
2005-01-26,2.07, 0.92, -25.81, 1.88, 1.79, 8.33, repro,
2005-01-27,4.91, 1.30, -24.45, 1.92, 1.85, 8.32, repro,
2005-01-28,3.99, 1.52, -31.62, 1.91, 1.78, 8.43, repro,
2005-01-29,3.16, 1.86, -29.29, 1.76, 1.65, 7.61, repro,
2005-01-30,3.06, 1.56, -26.94, 1.79, 1.66, 7.66, repro,
2005-01-31,4.22, 1.59, -32.19, 1.86, 1.71, 7.88, repro,
2005-02-01,4.15, 1.87, -33.76, 1.76, 1.65, 7.64, repro,
2005-02-02,3.72, 2.60, -27.70, 1.79, 1.68, 7.71, repro,
2005-02-03,4.87, 2.21, -31.47, 1.78, 1.69, 7.77, repro,
2005-02-04,5.37, 1.99, -31.16, 1.75, 1.65, 7.63, repro,
2005-02-05,3.55, 2.39, -29.74, 1.77, 1.65, 7.67, repro,
2005-02-06,2.96, 2.00, -27.34, 1.76, 1.67, 7.69, repro,
2005-02-07,2.70, 0.83, -25.90, 1.76, 1.66, 7.66, repro,
2005-02-08,2.61, 1.26, -19.81, 1.87, 1.75, 7.95, repro,
2005-02-09,1.90, -1.46, -29.20, 1.82, 1.75, 7.93, repro,
2005-02-10,3.31, 1.09, -26.83, 1.76, 1.66, 7.65, repro,
2005-02-11,4.32, 1.69, -27.16, 1.77, 1.67, 7.73, repro,
2005-02-12,3.92, 2.70, -28.41, 1.76, 1.67, 7.69, repro,
2005-02-13,3.03, 1.79, -19.48, 1.75, 1.66, 7.61, repro,
2005-02-14,2.19, 2.09, -18.10, 1.77, 1.67, 7.68, repro,
2005-02-15,2.67, 1.91, -22.69, 1.75, 1.67, 7.62, repro,
2005-02-16,2.09, 1.56, -22.15, 1.80, 1.72, 7.84, repro,
2005-02-17,2.48, 0.72, -26.14, 1.79, 1.74, 7.94, repro,
2005-02-18,3.84, 0.77, -27.38, 1.82, 1.77, 8.08, repro,
2005-02-19,3.10, 0.45, -27.61, 1.76, 1.68, 7.68, repro,
2005-02-20,3.19, 0.69, -27.11, 1.81, 1.72, 7.86, repro,
2005-02-21,2.73, -0.16, -25.39, 1.94, 1.87, 8.64, repro,
2005-02-22,2.67, -0.50, -27.05, 1.82, 1.79, 8.08, repro,
2005-02-23,2.17, 0.41, -24.27, 1.85, 1.86, 8.28, repro,
2005-02-24,3.41, -1.05, -31.74, 1.81, 1.77, 8.06, repro,
2005-02-25,3.57, 1.00, -29.40, 1.79, 1.72, 7.86, repro,
2005-02-26,3.72, 1.59, -28.51, 1.79, 1.71, 7.85, repro,
2005-02-27,3.24, 0.69, -28.32, 1.79, 1.73, 7.85, repro,
2005-02-28,2.95, 0.59, -22.17, 1.80, 1.77, 8.02, repro,
2005-03-01,4.43, 0.78, -27.83, 1.84, 1.83, 8.29, repro,
2005-03-02,5.02, 1.91, -28.17, 1.82, 1.78, 8.15, repro,
2005-03-03,5.31, 2.33, -27.35, 1.82, 1.82, 8.22, repro,
2005-03-04,3.23, 2.21, -25.74, 1.78, 1.71, 7.86, repro,
2005-03-05,3.52, 1.62, -35.23, 1.82, 1.84, 8.23, repro,
2005-03-06,3.20, -0.21, -33.68, 1.82, 1.83, 8.22, repro,
2005-03-07,1.68, 1.56, -25.02, 1.80, 1.73, 7.99, repro,
2005-03-08,2.84, 0.86, -34.42, 1.79, 1.72, 7.91, repro,
2005-03-09,3.81, 1.39, -25.41, 1.85, 1.77, 8.21, repro,
2005-03-10,3.86, 2.35, -26.76, 1.77, 1.72, 7.79, repro,
2005-03-11,2.96, 2.30, -24.53, 1.83, 1.83, 8.21, repro,
2005-03-12,3.45, 0.27, -25.24, 1.85, 1.81, 8.44, repro,
2005-03-13,2.92, 0.41, -23.78, 1.81, 1.77, 8.11, repro,
2005-03-14,1.95, 0.64, -23.90, 1.78, 1.72, 7.87, repro,
2005-03-15,2.65, 2.87, -26.55, 1.93, 1.84, 8.33, repro,
2005-03-16,2.13, 1.56, -26.74, 1.90, 1.85, 8.46, repro,
2005-03-17,3.93, 3.04, -27.89, 1.78, 1.70, 7.79, repro,
2005-03-18,4.27, 2.88, -27.16, 1.78, 1.70, 7.76, repro,
2005-03-19,3.70, 1.28, -23.29, 1.79, 1.71, 7.83, repro,
2005-03-20,2.75, 0.72, -25.88, 1.81, 1.77, 7.95, repro,
2005-03-21,2.89, 2.19, -29.90, 1.78, 1.69, 7.72, repro,
2005-03-22,2.78, 1.56, -29.83, 1.99, 1.98, 8.69, repro,
2005-03-23,2.11, 1.39, -21.54, 1.84, 1.83, 8.10, repro,
2005-03-24,2.82, 0.83, -26.17, 1.79, 1.70, 7.77, repro,
2005-03-25,1.29, 0.62, -25.28, 1.87, 1.79, 8.12, repro,
2005-03-26,1.76, -0.40, -28.69, 1.80, 1.72, 7.94, repro,
2005-03-27,3.39, 1.54, -25.86, 1.81, 1.73, 7.96, repro,
2005-03-28,3.63, 1.85, -22.43, 1.79, 1.72, 7.85, repro,
2005-03-29,2.87, 0.54, -20.55, 1.81, 1.73, 7.90, repro,
2005-03-30,2.29, 1.36, -17.77, 1.78, 1.72, 7.81, repro,
2005-03-31,0.41, 1.31, -22.64, 1.90, 1.79, 8.15, repro,
2005-04-01,1.36, 2.08, -18.39, 1.99, 1.91, 8.81, repro,
2005-04-02,4.08, 1.92, -30.22, 1.79, 1.71, 7.86, repro,
2005-04-03,2.89, 1.41, -26.92, 1.80, 1.78, 7.92, repro,
2005-04-04,2.97, 0.61, -21.83, 1.94, 1.92, 8.50, repro,
2005-04-05,2.81, 0.89, -26.15, 1.84, 1.81, 8.02, repro,
2005-04-06,1.08, 2.02, -22.05, 2.00, 2.00, 8.83, repro,
2005-04-07,1.59, 2.47, -26.05, 1.86, 1.81, 8.11, repro,
2005-04-08,3.62, 2.17, -23.41, 1.85, 1.78, 8.09, repro,
2005-04-09,2.87, 1.49, -22.06, 1.90, 1.83, 8.35, repro,
2005-04-10,1.05, 0.82, -21.15, 1.83, 1.79, 7.92, repro,
2005-04-11,1.88, 2.37, -18.57, 1.88, 1.80, 8.21, repro,
2005-04-12,2.84, 1.74, -18.74, 1.94, 1.96, 8.69, repro,
2005-04-13,3.35, 2.38, -23.21, 1.86, 1.79, 8.11, repro,
2005-04-14,3.03, 1.30, -32.18, 1.96, 1.99, 8.52, repro,
2005-04-15,3.95, 1.58, -31.85, 1.88, 1.87, 8.21, repro,
2005-04-16,2.97, 0.53, -32.07, 1.85, 1.78, 8.07, repro,
2005-04-17,3.61, 0.51, -31.68, 1.86, 1.79, 8.12, repro,
2005-04-18,2.35, 0.87, -21.48, 1.92, 1.82, 8.27, repro,
2005-04-19,2.23, 0.48, -22.20, 1.87, 1.81, 8.22, repro,
2005-04-20,1.66, -0.07, -27.19, 1.96, 1.93, 8.38, repro,
2005-04-21,2.09, 0.39, -26.63, 1.85, 1.82, 8.09, repro,
2005-04-22,1.79, -0.71, -19.15, 1.83, 1.75, 7.95, repro,
2005-04-23,2.83, 0.80, -18.26, 1.81, 1.74, 7.93, repro,
2005-04-24,3.45, 1.06, -23.54, 1.97, 1.93, 8.33, repro,
2005-04-25,3.65, 1.68, -13.63, 1.82, 1.77, 7.97, repro,
2005-04-26,1.53, 3.11, -18.56, 2.01, 1.92, 8.88, repro,
2005-04-27,2.11, 0.51, -25.86, 1.80, 1.76, 7.97, repro,
2005-04-28,2.22, 0.72, -17.06, 1.86, 1.80, 8.07, repro,
2005-04-29,1.57, 1.85, -16.36, 1.86, 1.79, 8.02, repro,
2005-04-30,1.62, -1.07, -19.47, 2.34, 2.41, 10.17, repro,
2005-05-01,3.11, 1.86, -25.57, 1.90, 1.84, 8.18, repro,
2005-05-02,2.16, 2.15, -25.82, 1.82, 1.76, 7.96, repro,
2005-05-03,1.09, 1.92, -22.09, 1.82, 1.76, 7.94, repro,
2005-05-04,1.58, 1.28, -24.72, 1.83, 1.73, 8.00, repro,
2005-05-05,2.15, 1.80, -25.50, 1.78, 1.71, 7.75, repro,
2005-05-06,1.86, 0.79, -27.66, 1.78, 1.70, 7.80, repro,
2005-05-07,0.86, 1.53, -25.40, 1.82, 1.77, 7.98, repro,
2005-05-08,2.81, 0.57, -16.38, 1.84, 1.72, 7.86, repro,
2005-05-09,0.81, 1.36, -17.52, 1.85, 1.73, 8.11, repro,
2005-05-10,1.51, 2.02, -17.04, 1.87, 1.77, 8.03, repro,
2005-05-11,-0.21, 0.33, -11.28, 1.87, 1.77, 7.98, repro,
2005-05-12,0.07, -0.59, -22.08, 1.85, 1.76, 8.04, repro,
2005-05-13,-0.37, 0.88, -23.31, 1.93, 1.93, 8.40, repro,
2005-05-14,-0.04, 1.44, -23.03, 1.89, 1.84, 8.67, repro,
2005-05-15,1.55, -0.32, -27.32, 1.85, 1.77, 8.27, repro,
2005-05-16,1.39, 1.33, -21.44, 1.95, 1.85, 8.34, repro,
2005-05-17,1.25, 1.64, -17.30, 1.92, 1.84, 8.62, repro,
2005-05-18,0.26, 0.95, -14.64, 1.87, 1.83, 8.19, repro,
2005-05-19,-0.36, 0.36, -19.06, 1.83, 1.77, 7.96, repro,
2005-05-20,-2.07, -1.22, -13.80, 1.84, 1.74, 8.18, repro,
2005-05-21,-0.21, 0.11, -10.53, 1.90, 1.79, 8.40, repro,
2005-05-22,-0.59, -0.21, -16.64, 2.02, 2.01, 9.10, repro,
2005-05-23,-0.91, 0.39, -13.86, 1.84, 1.81, 8.03, repro,
2005-05-24,-2.88, -0.37, -9.98, 2.06, 2.00, 9.55, repro,
2005-05-25,-0.19, -0.44, -15.28, 1.81, 1.73, 7.94, repro,
2005-05-26,0.31, 0.47, -10.59, 1.80, 1.71, 7.85, repro,
2005-05-27,-0.56, 0.51, -10.96, 1.80, 1.71, 7.90, repro,
2005-05-28,-0.72, 0.63, -16.53, 1.79, 1.70, 7.81, repro,
2005-05-29,1.57, 1.52, -6.49, 1.96, 1.99, 8.71, repro,
2005-05-30,1.38, 4.20, -10.21, 1.94, 1.89, 8.53, repro,
2005-05-31,0.07, -0.66, 0.16, 1.82, 1.71, 7.89, repro,
2005-06-01,0.48, 1.00, -11.92, 1.81, 1.72, 7.90, repro,
2005-06-02,0.86, -1.57, -10.13, 1.80, 1.73, 7.89, repro,
2005-06-03,0.01, 1.23, -5.79, 2.26, 2.05, 9.62, repro,
2005-06-04,0.37, 0.77, -15.43, 1.81, 1.71, 7.87, repro,
2005-06-05,-1.65, 0.45, -7.47, 1.87, 1.78, 8.21, repro,
2005-06-06,3.35, -0.83, -30.35, 2.12, 2.06, 9.54, repro,
2005-06-07,4.09, 0.45, -7.95, 1.86, 1.83, 8.28, repro,
2005-06-08,1.41, 1.08, -9.13, 2.14, 2.35, 9.87, repro,
2005-06-09,2.91, -1.06, -17.14, 2.21, 2.17, 9.67, repro,
2005-06-10,0.52, 1.47, -8.95, 1.92, 1.95, 8.44, repro,
2005-06-11,0.91, -0.02, -9.48, 1.80, 1.68, 7.72, repro,
2005-06-12,0.32, 1.28, -16.28, 1.93, 1.76, 8.29, repro,
2005-06-13,-0.42, -0.92, -19.52, 1.89, 1.77, 8.28, repro,
2005-06-14,-0.04, -2.09, -13.21, 1.85, 1.79, 8.06, repro,
2005-06-15,0.37, -0.48, -17.89, 1.90, 1.82, 8.24, repro,
2005-06-16,-0.49, -0.29, -21.98, 1.89, 1.78, 8.14, repro,
2005-06-17,0.90, 0.19, -19.91, 1.91, 1.79, 8.12, repro,
2005-06-18,3.03, 0.99, -17.31, 1.91, 1.83, 8.29, repro,
2005-06-19,0.60, 1.12, -16.27, 1.80, 1.69, 7.82, repro,
2005-06-20,-1.42, -0.02, -18.00, 1.84, 1.71, 7.94, repro,
2005-06-21,0.06, -0.53, -15.37, 2.02, 1.97, 9.08, repro,
2005-06-22,-1.73, 1.88, -22.32, 1.95, 1.75, 8.29, repro,
2005-06-23,0.15, -2.61, -22.29, 1.84, 1.75, 8.04, repro,
2005-06-24,-0.64, -0.20, -21.75, 2.09, 1.87, 8.92, repro,
2005-06-25,-0.87, -0.03, -18.74, 1.93, 1.85, 8.34, repro,
2005-06-26,1.37, 0.52, -16.04, 1.93, 1.79, 8.39, repro,
2005-06-27,-1.29, -2.30, -15.78, 1.90, 1.78, 8.26, repro,
2005-06-28,0.85, -0.65, -25.14, 1.88, 1.89, 8.52, repro,
2005-06-29,-2.00, 1.37, -36.44, 2.00, 2.02, 9.01, repro,
2005-06-30,3.24, 1.41, -6.94, 1.94, 1.89, 8.51, repro,
2005-07-01,0.48, 0.08, -19.40, 2.21, 2.29, 10.11, repro,
2005-07-02,0.09, 1.11, -13.64, 1.90, 1.75, 8.31, repro,
2005-07-03,1.11, -1.19, -21.68, 1.95, 1.93, 8.45, repro,
2005-07-04,0.66, 1.01, -13.47, 1.83, 1.72, 7.92, repro,
2005-07-05,-0.78, 0.08, -20.95, 2.00, 1.93, 8.61, repro,
2005-07-06,2.28, 3.33, -9.01, 1.84, 1.77, 8.06, repro,
2005-07-07,-1.15, 1.10, -25.27, 1.80, 1.72, 7.92, repro,
2005-07-08,2.09, -2.31, -9.42, 1.88, 1.78, 8.35, repro,
2005-07-09,0.88, -1.02, -15.81, 2.04, 2.02, 9.11, repro,
2005-07-10,-0.11, -0.31, -17.56, 1.85, 1.73, 8.11, repro,
2005-07-11,-0.83, 0.69, -17.75, 1.84, 1.72, 8.11, repro,
2005-07-12,-1.75, 0.61, -8.86, 1.93, 1.86, 8.38, repro,
2005-07-13,-0.32, 1.85, -17.11, 1.92, 1.82, 8.40, repro,
2005-07-14,0.49, 0.19, -21.15, 2.09, 1.97, 8.83, repro,
2005-07-15,0.35, 1.59, -11.33, 1.86, 1.83, 8.09, repro,
2005-07-16,0.72, -0.81, -21.27, 1.82, 1.78, 8.06, repro,
2005-07-17,0.06, 0.08, -25.82, 1.80, 1.71, 7.91, repro,
2005-07-18,2.78, -1.08, -17.49, 1.95, 1.87, 8.59, repro,
2005-07-19,-0.51, 0.79, -25.58, 2.15, 2.43, 9.88, repro,
2005-07-20,-2.31, -0.81, -19.23, 1.94, 1.87, 8.63, repro,
2005-07-21,0.79, -2.08, -26.28, 1.99, 1.87, 8.80, repro,
2005-07-22,1.89, -1.84, -23.85, 1.79, 1.68, 7.82, repro,
2005-07-23,-0.62, -1.75, -24.81, 2.01, 2.00, 8.96, repro,
2005-07-24,-1.86, -1.98, -15.93, 1.97, 1.90, 8.64, repro,
2005-07-25,1.15, 1.33, -22.51, 1.94, 1.84, 8.49, repro,
2005-07-26,-0.68, -2.06, -3.05, 1.98, 1.93, 8.79, repro,
2005-07-27,1.07, -1.67, -4.59, 2.04, 1.99, 8.70, repro,
2005-07-28,0.99, -1.55, -20.77, 2.37, 2.30, 10.79, repro,
2005-07-29,1.08, -0.30, -25.44, 1.96, 1.83, 8.65, repro,
2005-07-30,2.73, -1.51, -15.58, 2.10, 1.95, 9.40, repro,
2005-07-31,1.18, -3.67, -4.56, 1.99, 1.91, 8.73, repro,
2005-08-01,2.00, 0.93, -10.34, 1.94, 1.89, 8.78, repro,
2005-08-02,-1.83, -2.54, -28.17, 2.04, 1.76, 8.49, repro,
2005-08-03,-0.43, -1.16, -23.50, 1.82, 1.70, 7.88, repro,
2005-08-04,0.13, -2.82, -2.43, 2.00, 1.86, 8.64, repro,
2005-08-05,2.07, -0.95, -7.37, 2.02, 1.88, 8.89, repro,
2005-08-06,0.74, 0.38, -18.86, 1.83, 1.69, 7.89, repro,
2005-08-07,1.40, 0.05, -23.06, 2.15, 1.92, 9.20, repro,
2005-08-08,-2.22, -0.43, -11.10, 1.95, 1.89, 8.68, repro,
2005-08-09,-0.65, -2.82, -21.06, 1.94, 1.76, 8.36, repro,
2005-08-10,0.44, -1.53, -17.43, 1.90, 1.78, 8.31, repro,
2005-08-11,-2.06, -2.16, -15.74, 2.01, 1.77, 8.74, repro,
2005-08-12,-0.19, -3.98, -12.41, 2.01, 1.81, 8.81, repro,
2005-08-13,-1.30, -1.86, -8.79, 1.86, 1.74, 8.04, repro,
2005-08-14,-2.04, -1.32, -17.73, 1.96, 1.87, 8.63, repro,
2005-08-15,-4.20, -4.21, -15.42, 1.99, 1.92, 8.80, repro,
2005-08-16,-2.31, -2.52, -16.07, 1.87, 1.78, 8.09, repro,
2005-08-17,-1.63, -1.02, -7.63, 2.01, 1.82, 9.00, repro,
2005-08-18,-1.35, -1.24, -17.91, 1.84, 1.72, 7.93, repro,
2005-08-19,-3.19, -0.47, -25.12, 1.92, 1.81, 8.37, repro,
2005-08-20,-3.07, -0.82, -10.78, 1.91, 1.74, 8.25, repro,
2005-08-21,-3.45, -3.60, -21.33, 1.99, 1.84, 8.77, repro,
2005-08-22,-1.59, 0.03, -12.44, 1.83, 1.69, 7.87, repro,
2005-08-23,-1.12, 1.05, -18.42, 1.94, 1.82, 8.31, repro,
2005-08-24,0.03, -0.98, -16.74, 1.82, 1.71, 7.95, repro,
2005-08-25,-1.77, -1.56, -13.56, 1.89, 1.71, 8.25, repro,
2005-08-26,-2.18, -2.44, -17.14, 1.85, 1.77, 8.10, repro,
2005-08-27,-1.38, -2.88, -19.12, 1.96, 1.79, 8.48, repro,
2005-08-28,-1.64, -0.73, -4.04, 2.11, 1.92, 9.03, repro,
2005-08-29,-1.06, 1.30, -10.32, 1.97, 1.86, 8.89, repro,
2005-08-30,0.70, -0.22, -11.44, 1.90, 1.73, 8.46, repro,
2005-08-31,-1.73, -0.61, -12.28, 2.03, 1.84, 8.99, repro,
2005-09-01,-1.09, 0.18, -9.58, 1.91, 1.78, 8.26, repro,
2005-09-02,0.60, -1.37, -24.41, 1.84, 1.69, 7.96, repro,
2005-09-03,0.92, -0.29, -23.49, 1.81, 1.67, 7.81, repro,
2005-09-04,-0.40, -1.97, -18.07, 1.86, 1.69, 8.17, repro,
2005-09-05,-2.00, 0.84, -17.66, 2.12, 1.95, 9.36, repro,
2005-09-06,-1.49, -2.45, -22.16, 1.81, 1.69, 7.85, repro,
2005-09-07,-0.72, -2.48, -28.48, 1.90, 1.75, 8.33, repro,
2005-09-08,-1.66, -1.42, -15.87, 1.92, 1.82, 8.31, repro,
2005-09-09,-0.06, -1.28, -24.14, 1.81, 1.73, 7.88, repro,
2005-09-10,-1.20, -3.44, -21.20, 1.98, 1.96, 8.91, repro,